| time (UTC) | temp F | wind direction | speed MPH | gust MPH | rain 1hr in | rain 24hr in | rain mn in | humidity % | barometer mb |
| 20260503004504 | 52 | 338 | 2.0 | 12.0 | 0.00 | 0.00 | 0.00 | 49 | 970.1 |
| 20260503003004 | 53 | 327 | 2.0 | 9.0 | 0.00 | 0.00 | 0.00 | 49 | 970.0 |
| 20260503001502 | 53 | 11 | 5.0 | 13.0 | 0.00 | 0.00 | 0.00 | 48 | 969.7 |
| 20260503000002 | 54 | 311 | 2.0 | 12.0 | 0.00 | 0.00 | 0.00 | 48 | 969.4 |
| 20260502234501 | 55 | 288 | 6.0 | 15.0 | 0.00 | 0.00 | 0.00 | 45 | 969.0 |
| 20260502233002 | 55 | 303 | 8.0 | 17.0 | 0.00 | 0.00 | 0.00 | 45 | 968.7 |
| 20260502231612 | 56 | 335 | 7.0 | 18.0 | 0.00 | 0.00 | 0.00 | 44 | 968.3 |
| 20260502230059 | 58 | 286 | 3.0 | 10.0 | 0.00 | 0.00 | 0.00 | 43 | 968.4 |
| 20260502224559 | 58 | 315 | 3.0 | 9.0 | 0.00 | 0.00 | 0.00 | 44 | 968.3 |
| 20260502223059 | 57 | 5 | 7.0 | 16.0 | 0.00 | 0.00 | 0.00 | 45 | 968.4 |
| 20260502221604 | 58 | 312 | 7.0 | 16.0 | 0.00 | 0.00 | 0.00 | 44 | 968.3 |
| 20260502220104 | 58 | 36 | 5.0 | 17.0 | 0.00 | 0.00 | 0.00 | 43 | 968.1 |
| 20260502214606 | 58 | 308 | 8.0 | 16.0 | 0.00 | 0.00 | 0.00 | 43 | 967.9 |
| 20260502213057 | 59 | 54 | 8.0 | 14.0 | 0.00 | 0.00 | 0.00 | 42 | 967.6 |
| 20260502211602 | 60 | 283 | 9.0 | 19.0 | 0.00 | 0.00 | 0.00 | 41 | 967.3 |
| 20260502204656 | 61 | 300 | 7.0 | 14.0 | 0.00 | 0.00 | 0.00 | 40 | 966.8 |
| 20260502203059 | 61 | 360 | 8.0 | 14.0 | 0.00 | 0.00 | 0.00 | 40 | 966.8 |
| 20260502201553 | 62 | 355 | 3.0 | 11.0 | 0.00 | 0.00 | 0.00 | 39 | 966.8 |
| 20260502200052 | 63 | 300 | 8.0 | 14.0 | 0.00 | 0.00 | 0.00 | 37 | 966.9 |
| 20260502194550 | 62 | 326 | 7.0 | 13.0 | 0.00 | 0.00 | 0.00 | 38 | 967.2 |
| 20260502193048 | 63 | 304 | 5.0 | 11.0 | 0.00 | 0.00 | 0.00 | 37 | 967.3 |
| 20260502191543 | 61 | 53 | 4.0 | 13.0 | 0.00 | 0.00 | 0.00 | 39 | 967.6 |
| 20260502190043 | 61 | 292 | 5.0 | 16.0 | 0.00 | 0.00 | 0.00 | 40 | 967.7 |
| 20260502184542 | 60 | 302 | 5.0 | 12.0 | 0.00 | 0.00 | 0.00 | 40 | 967.7 |
| 20260502183040 | 60 | 18 | 5.0 | 14.0 | 0.00 | 0.00 | 0.00 | 39 | 967.8 |
| 20260502181534 | 60 | 68 | 2.0 | 8.0 | 0.00 | 0.00 | 0.00 | 45 | 968.1 |
| 20260502163018 | 54 | 355 | 1.0 | 9.0 | 0.00 | 0.00 | 0.00 | 52 | 969.8 |
| 20260502161516 | 54 | 313 | 6.0 | 12.0 | 0.00 | 0.00 | 0.00 | 51 | 969.9 |
| 20260502151512 | 51 | 95 | 4.0 | 10.0 | 0.00 | 0.00 | 0.00 | 53 | 970.5 |
| 20260502123057 | 50 | 309 | 3.0 | 6.0 | 0.00 | 0.00 | 0.00 | 56 | 969.8 |
| 20260502121601 | 50 | 14 | 1.0 | 8.0 | 0.00 | 0.00 | 0.00 | 55 | 969.5 |
| 20260502120110 | 50 | 298 | 3.0 | 11.0 | 0.00 | 0.00 | 0.00 | 55 | 969.7 |
| 20260502114600 | 50 | 316 | 3.0 | 13.0 | 0.00 | 0.00 | 0.00 | 56 | 969.7 |
| 20260502113050 | 50 | 337 | 6.0 | 11.0 | 0.00 | 0.00 | 0.00 | 57 | 969.4 |
| 20260502111553 | 50 | 321 | 2.0 | 10.0 | 0.00 | 0.00 | 0.00 | 64 | 969.4 |
| 20260502110049 | 50 | 64 | 5.0 | 11.0 | 0.00 | 0.00 | 0.00 | 63 | 969.1 |
| 20260502104552 | 50 | 355 | 2.0 | 6.0 | 0.00 | 0.00 | 0.00 | 62 | 969.2 |
| 20260502103047 | 51 | 297 | 3.0 | 15.0 | 0.00 | 0.00 | 0.00 | 63 | 969.0 |
| 20260502101547 | 51 | 355 | 2.0 | 16.0 | 0.00 | 0.00 | 0.00 | 66 | 968.9 |
| 20260502070027 | 53 | 340 | 4.0 | 12.0 | 0.00 | 0.00 | 0.00 | 72 | 968.3 |
| 20260502064523 | 53 | 40 | 3.0 | 10.0 | 0.00 | 0.00 | 0.00 | 72 | 968.4 |
| 20260502063021 | 54 | 111 | 4.0 | 9.0 | 0.00 | 0.00 | 0.00 | 72 | 968.8 |
| 20260502061519 | 54 | 342 | 2.0 | 5.0 | 0.00 | 0.00 | 0.00 | 71 | 969.1 |
| 20260502060019 | 54 | 326 | 1.0 | 5.0 | 0.00 | 0.00 | 0.00 | 71 | 969.3 |
| 20260502054520 | 54 | 355 | 1.0 | 5.0 | 0.00 | 0.00 | 0.00 | 74 | 969.3 |
| 20260502053016 | 54 | 355 | 1.0 | 2.0 | 0.00 | 0.00 | 0.00 | 75 | 969.3 |
| 20260502051530 | 54 | 355 | 1.0 | 8.0 | 0.00 | 0.00 | 0.00 | 75 | 969.1 |
| 20260502050012 | 53 | 45 | 1.0 | 4.0 | 0.00 | 0.00 | 0.00 | 80 | 969.1 |
| 20260502044507 | 52 | 37 | 0.0 | 3.0 | 0.00 | 0.00 | 0.00 | 82 | 969.2 |
| 20260502043005 | 51 | 24 | 1.0 | 4.0 | 0.00 | 0.00 | 0.00 | 87 | 969.2 |
| 20260502041504 | 50 | 20 | 0.0 | 2.0 | 0.00 | 0.00 | 0.00 | 88 | 969.2 |
| 20260502040101 | 52 | 17 | 0.0 | 2.0 | 0.00 | 0.00 | 0.00 | 87 | 969.1 |
| 20260502034559 | 51 | 20 | 2.0 | 8.0 | 0.00 | 0.00 | 0.00 | 88 | 969.0 |
| 20260502033059 | 50 | 246 | 0.0 | 0.0 | 0.00 | 0.00 | 0.00 | 90 | 968.8 |
| 20260502031611 | 51 | 246 | 0.0 | 0.0 | 0.00 | 0.00 | 0.00 | 89 | 969.1 |
| 20260502030058 | 51 | 246 | 0.0 | 0.0 | 0.00 | 0.00 | 0.00 | 87 | 969.1 |
| 20260502024558 | 52 | 246 | 0.0 | 0.0 | 0.00 | 0.00 | 0.00 | 87 | 968.8 |
| 20260502023057 | 52 | 246 | 0.0 | 1.0 | 0.00 | 0.00 | 0.00 | 86 | 968.9 |
| 20260502021558 | 53 | 246 | 0.0 | 0.0 | 0.00 | 0.00 | 0.00 | 86 | 968.7 |
| 20260502020107 | 53 | 246 | 0.0 | 0.0 | 0.00 | 0.00 | 0.00 | 85 | 968.5 |
| 20260502014556 | 54 | 246 | 0.0 | 0.0 | 0.00 | 0.00 | 0.00 | 83 | 968.3 |
| 20260502013057 | 54 | 246 | 0.0 | 2.0 | 0.00 | 0.00 | 0.00 | 80 | 968.1 |
| 20260502011555 | 56 | 246 | 0.0 | 0.0 | 0.00 | 0.00 | 0.00 | 79 | 968.0 |
| 20260502010057 | 57 | 246 | 0.0 | 0.0 | 0.00 | 0.00 | 0.00 | 76 | 968.0 |